STARLINK-35950, 66622

Orbit data source: Space-Track

STARLINK-35950, 66622 is a payload satellite owned by SpaceX/Seattle (US) in LEO that was launched on Sun, 23 Nov 2025 UTC via an FALCON 9 launch vehicle from the Air Force Western Test Range (AFWTR). Payload-class satellites include a variety of spacecraft equipped with specific instruments for various scientific and technological missions. These include communications satellites like Starlink; space stations such as the ISS; scientific satellites like the Hubble; Earth observation satellites from companies like Planet Labs, Umbra, and HawkEye 360; GPS; miniature CubeSats for education and research; and military/defense satellites.

Loading next visibility...
Identifier
66622, 2025-271F
Orbit
LEO
Country
Flag of USUS
Related business
Manufacturer
SpaceX/Seattle
Mission
Operational Commercial Communications
Bus & Motor
STARLINK V2MO, Unknown motor
Mass
575 kg wet, ~530 kg dry
Launch date (UTC)
2025-11-23 (2 months ago)
Launch vehicle
FALCON 9
Launch site
Air Force Western Test Range (AFWTR)
Object type
Payload
Rocket body
Debris
Shape & HBR
Box + 2 Pan, 17.7 m
Radar Cross Section
36.964 m²

Expand to show TLE details & history
Last TLE update: 7 hours ago

TLE from 7 hours ago
0 STARLINK-35950
1 66622U 25271F   26037.07173201  .00020011  00000-0  68586-3 0  9998
2 66622  53.1588 286.9574 0001167  52.5481 307.5626 15.30203350 12728
Epoch: 2026-02-06T01:43Z
TLE epoch observation values (Epoch: 2026-02-06T01:43:17.645Z)
Latitude
-0.00001°
Longitude
124.919°
Altitude
475.617 km
Speed
7.629 km/s
True Right ascension
19h 07m 49s
True Declination
0° 00' 00"
Sunlit
Object was in daylight at epoch
Visualization orbit readout
Latitude
Unknown
Longitude
Unknown
Altitude
Unknown
Speed
Unknown
Apparent Right ascension
Unknown
Apparent Declination
Unknown
Sunlit
N/A
Visualization observer readout
Local Sidereal Time
10:35:31
Azimuth
Unknown
Elevation
Unknown
Doppler factor
Unknown
Orbital elements
Apogee altitude
476.262 km
Perigee altitude
474.662 km
Semi-major axis
6,853.599 km
Eccentricity
0.00012
Inclination
53.1588°
RAAN
286.9574°
Arg. of periapsis
52.5481°
True anomaly
307.552°
Mean anomaly
307.5626°
Eccentric anomaly
307.5573°
Mean motion
3.8253 °/min
Orbital period
94.11 mins
BSTAR
0.00068586
Loading maneuver chart data...
Computing Atmospheric mass density...
Loading historical data...
Loading historical data...
Loading historical data...
Loading historical data...
Loading historical data...
Loading historical data...
Loading historical data...

Documentation

Showing up to 5 results
|